#timestamp,LO_Frequency,Hit 
1502150415.1,286047077.1,N
1502150435.9,286047079.9,N
1502150455.9,286047083.3,N
1502150475.7,286047085.8,N
1502150495.5,286047082.9,N
1502150515.4,286047087.4,N
1502150535.2,286047087.9,N
1502150555.1,286047088.4,N
1502150556.0,286047088.4,N
1502150575.8,286047086.2,N
1502150595.6,286047085.0,N
1502150615.5,286047086.3,N
1502150635.3,286047086.1,N
1502150655.1,286047087.2,N
1502150675.8,286047090.4,N
1502150695.7,286047084.9,N
1502150715.5,286047087.3,N
1502150735.3,286047088.5,N
1502150755.2,286047089.5,N
1502150775.9,286047088.7,N
1502150795.7,286047085.2,N
1502150815.6,286047086.4,N
1502150835.4,286047087.9,N
1502150855.2,286047086.9,N
1502150875.1,286047084.9,N
1502150876.0,286047084.9,N
1502150895.8,286047088.1,N
1502150915.6,286047088.5,N
1502150935.4,286047090.1,N
1502150955.3,286047088.7,N
1502150975.1,286047087.3,N
1502150995.8,286047087.1,N
1502151015.7,286047087.4,N
1502151035.5,286047085.6,N
1502151055.3,286047083.4,N
1502151075.2,286047084.0,N
1502151095.9,286047085.8,N
1502151115.7,286047088.8,N
1502151135.6,286047087.9,N
1502151155.4,286047090.8,N
1502151175.2,286047088.0,N
1502151195.0,286047090.9,N
1502151195.9,286047090.9,N
1502151215.8,286047093.7,N
1502151235.6,286047091.0,N
1502151255.4,286047093.6,N
1502151275.3,286047092.9,N
1502151295.1,286047097.0,N
1502151315.8,286047097.2,N
1502151335.7,286047094.9,N
1502151355.5,286047096.6,N
1502151375.3,286047094.7,N
1502151395.2,286047094.8,N
1502151415.9,286047095.7,N
1502151435.7,286047098.1,N
1502151455.5,286047097.7,N
1502151475.4,286047101.9,N
1502151495.2,286047101.3,N
1502151515.0,286047101.4,N
1502151535.7,286047098.9,N
1502151555.5,286047096.9,N
1502151575.4,286047093.8,N
1502151595.2,286047092.5,N
1502151615.0,286047095.6,N
1502151615.9,286047095.6,N
1502151635.7,286047094.5,N
1502151655.6,286047093.2,N
1502151675.4,286047093.9,N
1502151695.2,286047094.6,N
1502151715.1,286047096.0,N
1502151716.0,286047096.0,N
1502151735.8,286047094.1,N
1502151755.6,286047096.0,N
1502151775.5,286047097.4,N
1502151795.3,286047101.8,N
1502151815.7,286047101.7,N
1502151835.5,286047104.6,N
1502151855.3,286047102.1,N
1502151875.2,286047102.6,N
1502151895.9,286047102.9,N
1502151915.7,286047104.8,N
1502151935.6,286047106.7,N
1502151955.4,286047106.2,N
1502151975.2,286047106.2,N
1502151995.1,286047105.9,N
1502151996.0,286047105.9,N
1502152015.8,286047105.4,N
1502152035.6,286047106.8,N
1502152055.4,286047105.7,N
1502152075.3,286047104.9,N
1502152095.1,286047102.4,N
1502152115.8,286047102.6,N
1502152135.7,286047103.9,N
1502152155.5,286047105.3,N
1502152175.3,286047107.1,N
1502152195.2,286047111.2,N
1502152215.9,286047111.2,N
1502152235.7,286047109.1,N
1502152255.6,286047111.0,N
1502152275.4,286047113.0,N
1502152295.2,286047112.0,N
1502152315.0,286047111.1,N
1502152316.0,286047111.1,N
1502152335.8,286047105.6,N
1502152355.6,286047102.5,N
1502152375.4,286047106.3,N
1502152395.3,286047105.3,N
1502152415.1,286047108.2,N
1502152435.8,286047110.0,N
1502152455.7,286047106.5,N
1502152475.5,286047106.7,N
1502152495.3,286047108.4,N
1502152515.2,286047109.9,N
1502152535.9,286047105.4,N
1502152555.7,286047105.3,N
1502152575.6,286047109.3,N
1502152595.4,286047110.7,N
1502152615.2,286047114.7,N
1502152635.0,286047112.4,N
1502152635.9,286047112.4,N
1502152655.8,286047112.9,N
1502152675.6,286047112.6,N
1502152695.4,286047112.8,N
1502152715.3,286047111.8,N
1502152735.1,286047114.7,N
1502152755.8,286047113.6,N
1502152775.7,286047114.2,N
1502152795.5,286047113.6,N
1502152815.3,286047115.4,N
1502152835.2,286047116.4,N
1502152855.9,286047111.8,N
1502152875.7,286047113.0,N
1502152895.6,286047113.6,N
1502152915.4,286047110.6,N
1502152935.2,286047110.2,N
1502152955.0,286047109.7,N
1502152956.0,286047109.7,N
1502152975.8,286047110.7,N
1502152995.6,286047112.6,N
1502153015.4,286047111.3,N
1502153035.3,286047112.6,N
1502153055.1,286047112.0,N
1502153075.8,286047110.2,N
1502153095.7,286047110.7,N
1502153115.5,286047113.0,N
1502153135.3,286047112.3,N
1502153155.2,286047113.0,N
1502153175.9,286047111.0,N
1502153195.8,286047114.8,N
1502153215.6,286047112.2,N
1502153235.4,286047110.1,N
1502153255.2,286047111.4,N
1502153275.1,286047106.9,N
1502153276.0,286047106.9,N
1502153295.8,286047108.3,N
1502153315.6,286047109.2,N
1502153335.5,286047110.3,N
1502153355.3,286047112.0,N
1502153375.1,286047113.3,N
1502153395.9,286047113.6,N
1502153415.7,286047111.8,N
1502153435.5,286047116.3,N
1502153455.4,286047119.4,N
1502153475.2,286047117.2,N
1502153495.0,286047115.1,N
1502153495.9,286047115.1,N
1502153515.7,286047119.1,N
1502153535.6,286047119.5,N
1502153555.4,286047116.9,N
1502153575.2,286047116.0,N
1502153595.1,286047111.4,N
1502153596.0,286047111.4,N
1502153615.8,286047111.6,N
1502153635.6,286047111.2,N
1502153655.5,286047111.0,N
1502153675.3,286047110.5,N
1502153695.1,286047114.2,N
1502153715.9,286047116.2,N
1502153735.7,286047117.4,N
1502153755.5,286047115.2,N
1502153775.3,286047115.7,N
1502153795.2,286047113.8,N
1502153815.0,286047113.8,N
1502153815.9,286047113.8,N
1502153835.7,286047115.2,N
1502153855.9,286047117.4,N
1502153875.7,286047119.0,N
1502153895.5,286047119.0,N
1502153915.4,286047118.6,N
1502153935.2,286047120.0,N
1502153955.0,286047121.5,N
1502153955.9,286047121.5,N
1502153975.8,286047120.1,N
1502153995.6,286047122.1,N
